Medford, WI

10:17 AM CDT on March 30, 2017 (GMT -0500)
Taylor County

Weather History for KMDZ - October, 2014

Change the Weather History Date:

Saturday, October 25, 2014

  Actual Average Record
Temperature  
Mean Temperature 50 °F -  
Max Temperature 58 °F 52 °F 75 °F (1989)
Min Temperature 41 °F 32 °F 17 °F (1957)
Degree Days  
Heating Degree Days 15    
Moisture  
Dew Point 35 °F    
Average Humidity 60    
Maximum Humidity 99    
Minimum Humidity 30    
Precipitation  
Precipitation 0.00 in - - ()
Sea Level Pressure  
Sea Level Pressure 29.90 in    
Wind  
Wind Speed 10 mph (WNW)    
Max Wind Speed 22 mph    
Max Gust Speed 31 mph    
Visibility 9 miles    
Events      
Averages and records for this station are not official NWS values.
T = Trace of Precipitation, MM = Missing Value Source: NWS Daily Summary

Daily Weather History Graph

Daily Weather History Graph

Search for Another Location

Airport or City:

Trip Planner

Search our weather history database for the weather conditions in past years. The results will help you decide how hot, cold, wet, or windy it might be!

Date:

Astronomy

Oct. 25, 2014 Rise Set
Actual Time 7:30 AM CDT 5:59 PM CDT
Civil Twilight 7:00 AM CDT 6:29 PM CDT
Nautical Twilight 6:25 AM CDT 7:04 PM CDT
Astronomical Twilight 5:51 AM CDT 7:38 PM CDT
Moon 9:12 AM CDT (10/25) 7:18 PM CDT (10/25)
Length of Visible Light 11h 29m
Length of Day
10h 29m
Waxing Crescent, 3% of the Moon is Illuminated
Oct 25
Waxing Crescent
Oct 30
First Quarter
Nov 6
Full
Nov 14
Last Quarter
Nov 22
New

Hourly Weather History & Observations

Time (CDT) Temp. Windchill Dew Point Humidity Pressure Visibility Wind Dir Wind Speed Gust Speed Precip Events Conditions
12:15 AM 53.6 °F - 52.9 °F 97% 29.84 in 2.5 mi WSW 6.9 mph - N/A   Overcast
12:35 AM 53.6 °F - 52.9 °F 97% 29.83 in 2.5 mi WSW 4.6 mph - N/A   Overcast
12:55 AM 53.6 °F - 52.9 °F 97% 29.83 in 2.0 mi WSW 6.9 mph - N/A   Overcast
1:15 AM 53.2 °F - 52.9 °F 99% 29.83 in 1.0 mi West 9.2 mph 16.1 mph N/A   Overcast
1:35 AM 53.2 °F - 52.9 °F 99% 29.84 in 2.0 mi West 9.2 mph - N/A   Overcast
1:55 AM 53.2 °F - 52.3 °F 97% 29.84 in 3.0 mi West 10.4 mph 17.3 mph N/A   Overcast
2:15 AM 52.7 °F - 51.8 °F 97% 29.84 in 4.0 mi West 9.2 mph - N/A   Overcast
2:35 AM 52.0 °F - 51.1 °F 97% 29.85 in 4.0 mi West 8.1 mph - N/A   Mostly Cloudy
2:55 AM 51.1 °F - 50.4 °F 97% 29.85 in 4.0 mi West 9.2 mph - N/A   Scattered Clouds
3:15 AM 50.9 °F - 49.8 °F 96% 29.85 in 4.0 mi West 9.2 mph - N/A   Clear
3:35 AM 50.4 °F - 48.2 °F 92% 29.85 in 7.0 mi West 9.2 mph - N/A   Clear
3:55 AM 49.8 °F - 48.2 °F 94% 29.85 in 7.0 mi West 8.1 mph - N/A   Clear
4:15 AM 49.5 °F - 47.3 °F 92% 29.85 in 7.0 mi WNW 6.9 mph - N/A   Clear
4:35 AM 48.6 °F - 46.0 °F 91% 29.86 in 7.0 mi WNW 6.9 mph - N/A   Clear
4:55 AM 48.4 °F - 44.8 °F 87% 29.86 in 10.0 mi WNW 8.1 mph - N/A   Clear
5:15 AM 47.5 °F - 43.7 °F 87% 29.86 in 10.0 mi WNW 8.1 mph - N/A   Clear
5:35 AM 47.3 °F - 42.8 °F 84% 29.86 in 10.0 mi WNW 6.9 mph - N/A   Clear
5:55 AM 46.2 °F 42.7 °F 41.2 °F 83% 29.87 in 10.0 mi WNW 6.9 mph - N/A   Clear
6:15 AM 46.9 °F - 41.0 °F 80% 29.87 in 10.0 mi West 9.2 mph - N/A   Clear
6:35 AM 46.0 °F 41.9 °F 40.3 °F 80% 29.87 in 10.0 mi WNW 8.1 mph - N/A   Clear
6:55 AM 45.1 °F 39.9 °F 40.1 °F 82% 29.87 in 10.0 mi West 10.4 mph - N/A   Clear
7:15 AM 45.0 °F 40.1 °F 39.6 °F 81% 29.88 in 10.0 mi West 9.2 mph - N/A   Clear
7:35 AM 44.8 °F 39.9 °F 39.2 °F 81% 29.89 in 10.0 mi West 9.2 mph - N/A   Clear
7:55 AM 45.1 °F 40.3 °F 38.3 °F 77% 29.89 in 10.0 mi West 9.2 mph - N/A   Clear
8:15 AM 45.7 °F 40.6 °F 38.3 °F 75% 29.89 in 10.0 mi West 10.4 mph - N/A   Clear
8:35 AM 46.8 °F - 37.9 °F 71% 29.90 in 10.0 mi WNW 9.2 mph - N/A   Clear
8:55 AM 48.0 °F - 37.6 °F 67% 29.90 in 10.0 mi WNW 11.5 mph - N/A   Clear
9:15 AM 49.3 °F - 37.2 °F 63% 29.90 in 10.0 mi WNW 12.7 mph 18.4 mph N/A   Clear
9:35 AM 50.0 °F - 36.3 °F 59% 29.91 in 10.0 mi WNW 11.5 mph 21.9 mph N/A   Clear
9:55 AM 50.7 °F - 36.5 °F 58% 29.92 in 10.0 mi WNW 13.8 mph 25.3 mph N/A   Clear
10:15 AM 51.1 °F - 35.4 °F 55% 29.92 in 10.0 mi WNW 13.8 mph 21.9 mph N/A   Clear
10:35 AM 52.0 °F - 34.5 °F 51% 29.91 in 10.0 mi NW 15.0 mph 21.9 mph N/A   Clear
10:55 AM 53.1 °F - 33.8 °F 48% 29.91 in 10.0 mi WNW 17.3 mph 21.9 mph N/A   Clear
11:15 AM 54.5 °F - 32.9 °F 44% 29.92 in 10.0 mi WNW 15.0 mph 20.7 mph N/A   Clear
11:35 AM 55.0 °F - 31.3 °F 40% 29.91 in 10.0 mi NW 16.1 mph 21.9 mph N/A   Clear
11:55 AM 55.8 °F - 31.5 °F 40% 29.91 in 10.0 mi NW 16.1 mph - N/A   Clear
12:15 PM 56.3 °F - 30.7 °F 38% 29.91 in 10.0 mi WNW 18.4 mph 28.8 mph N/A   Clear
12:35 PM 56.7 °F - 30.4 °F 37% 29.92 in 10.0 mi WNW 16.1 mph 23.0 mph N/A   Clear
12:55 PM 56.8 °F - 29.7 °F 35% 29.92 in 10.0 mi WNW 15.0 mph 28.8 mph N/A   Clear
1:15 PM 57.4 °F - 29.8 °F 35% 29.91 in 10.0 mi WNW 17.3 mph - N/A   Clear
1:35 PM 57.6 °F - 30.4 °F 36% 29.91 in 10.0 mi West 21.9 mph 25.3 mph N/A   Clear
1:55 PM 57.4 °F - 28.8 °F 34% 29.91 in 10.0 mi WNW 18.4 mph 31.1 mph N/A   Clear
2:15 PM 57.7 °F - 28.9 °F 33% 29.91 in 10.0 mi WNW 18.4 mph 31.1 mph N/A   Clear
2:55 PM 58.1 °F - 29.8 °F 34% 29.91 in 10.0 mi West 17.3 mph 26.5 mph N/A   Clear
3:15 PM 58.1 °F - 28.4 °F 32% 29.91 in 10.0 mi WNW 15.0 mph 31.1 mph N/A   Clear
3:35 PM 58.1 °F - 28.0 °F 32% 29.91 in 10.0 mi WNW 17.3 mph 31.1 mph N/A   Clear
3:55 PM 58.1 °F - 26.8 °F 30% 29.90 in 10.0 mi WNW 17.3 mph 25.3 mph N/A   Clear
4:15 PM 58.1 °F - 28.4 °F 32% 29.91 in 10.0 mi WNW 19.6 mph 28.8 mph N/A   Clear
4:35 PM 57.6 °F - 27.5 °F 32% 29.91 in 10.0 mi WNW 17.3 mph 25.3 mph N/A   Clear
4:55 PM 57.2 °F - 27.3 °F 32% 29.91 in 10.0 mi WNW 11.5 mph 24.2 mph N/A   Clear
5:15 PM 56.5 °F - 25.9 °F 31% 29.91 in 10.0 mi WNW 15.0 mph 25.3 mph N/A   Clear
5:35 PM 55.6 °F - 26.8 °F 33% 29.92 in 10.0 mi WNW 12.7 mph 21.9 mph N/A   Clear
5:55 PM 54.3 °F - 27.0 °F 35% 29.92 in 10.0 mi West 11.5 mph - N/A   Clear
6:15 PM 53.6 °F - 26.4 °F 35% 29.93 in 10.0 mi West 10.4 mph 18.4 mph N/A   Clear
6:55 PM 51.1 °F - 26.8 °F 39% 29.93 in 10.0 mi West 9.2 mph - N/A   Clear
7:15 PM 49.3 °F - 27.3 °F 43% 29.94 in 10.0 mi West 8.1 mph - N/A   Clear
7:35 PM 48.4 °F - 27.5 °F 44% 29.95 in 10.0 mi WNW 6.9 mph - N/A   Clear
7:55 PM 46.4 °F 42.9 °F 27.7 °F 48% 29.95 in 10.0 mi WNW 6.9 mph - N/A   Clear
8:15 PM 45.0 °F 41.8 °F 27.9 °F 51% 29.96 in 10.0 mi WNW 5.8 mph - N/A   Clear
8:35 PM 44.4 °F 41.2 °F 27.9 °F 52% 29.96 in 10.0 mi WNW 5.8 mph - N/A   Clear
8:55 PM 44.2 °F 40.3 °F 27.9 °F 53% 29.95 in 10.0 mi WNW 6.9 mph - N/A   Clear
9:15 PM 45.9 °F 41.7 °F 26.1 °F 46% 29.96 in 10.0 mi WNW 8.1 mph - N/A   Clear
9:35 PM 46.4 °F 41.5 °F 24.8 °F 43% 29.96 in 10.0 mi NW 10.4 mph - N/A   Clear
9:55 PM 45.0 °F 41.2 °F 24.6 °F 45% 29.96 in 10.0 mi NW 6.9 mph - N/A   Clear
10:15 PM 45.0 °F 40.1 °F 24.4 °F 45% 29.96 in 10.0 mi NW 9.2 mph - N/A   Clear
10:35 PM 45.0 °F 40.6 °F 24.4 °F 45% 29.97 in 10.0 mi WNW 8.1 mph - N/A   Clear
10:55 PM 44.6 °F 39.7 °F 24.8 °F 46% 29.97 in 10.0 mi WNW 9.2 mph - N/A   Clear
11:15 PM 44.1 °F 40.8 °F 25.2 °F 47% 29.98 in 10.0 mi WNW 5.8 mph - N/A   Clear
11:35 PM 42.3 °F 37.9 °F 25.3 °F 51% 29.97 in 10.0 mi WNW 6.9 mph - N/A   Clear
11:55 PM 41.7 °F 38.0 °F 25.7 °F 53% 29.97 in 10.0 mi WNW 5.8 mph - N/A   Clear